QFA416 YSSY-YMML

Flight info

Callsign QFA416
Flight time 1h 12m
Altitude 36000
Route GROOK1/16R WOL H65 LEECE Q29 ML
Aircraft A21N/M-SDE3FGHIRWY/LB1

Departure

Time 2026-05-05 03:42
Airport Sydney Kingsford Smith International Airport (YSSY)

Arrival

Time 2026-05-05 04:54
Airport Melbourne Airport (YMML)
Time Latitude Longitude Altitude Speed Heading
2026-05-05 03:36 -33.93029 151.17685 22 ft 2 kts 276°
2026-05-05 03:36 -33.93032 151.17702 22 ft 2 kts 292°
2026-05-05 03:36 -33.93035 151.17709 22 ft 1 kts 302°
2026-05-05 03:36 -33.93037 151.17714 22 ft 0 kts 301°
2026-05-05 03:38 -33.93036 151.17711 22 ft 0 kts 300°
2026-05-05 03:38 -33.93033 151.17705 22 ft 1 kts 300°
2026-05-05 03:38 -33.93028 151.17694 22 ft 2 kts 300°
2026-05-05 03:38 -33.93017 151.17659 21 ft 7 kts 284°
2026-05-05 03:39 -33.93005 151.17596 21 ft 8 kts 282°
2026-05-05 03:39 -33.92994 151.17529 21 ft 8 kts 281°
2026-05-05 03:39 -33.92983 151.17454 21 ft 9 kts 281°
2026-05-05 03:39 -33.92971 151.17380 21 ft 10 kts 280°
2026-05-05 03:40 -33.92960 151.17300 21 ft 10 kts 279°
2026-05-05 03:40 -33.92956 151.17223 22 ft 9 kts 257°
2026-05-05 03:40 -33.92991 151.17178 24 ft 7 kts 188°
2026-05-05 03:40 -33.93032 151.17188 25 ft 6 kts 167°
2026-05-05 03:41 -33.93080 151.17200 24 ft 7 kts 168°
2026-05-05 03:41 -33.93134 151.17213 24 ft 13 kts 168°
2026-05-05 03:41 -33.93469 151.17308 16 ft 88 kts 167°
2026-05-05 03:41 -33.94227 151.17493 18 ft 146 kts 168°
2026-05-05 03:42 -33.95318 151.17772 159 ft 182 kts 173°
2026-05-05 03:42 -33.96583 151.18094 755 ft 188 kts 171°
2026-05-05 03:42 -33.97847 151.18208 1496 ft 188 kts 186°
2026-05-05 03:42 -33.99021 151.18051 2153 ft 195 kts 189°
2026-05-05 03:43 -34.00257 151.17856 2679 ft 209 kts 189°
2026-05-05 03:43 -34.01580 151.17674 3215 ft 223 kts 186°
2026-05-05 03:43 -34.02860 151.17693 3680 ft 238 kts 176°
2026-05-05 03:43 -34.04165 151.17969 4117 ft 252 kts 169°
2026-05-05 03:44 -34.05878 151.18509 4647 ft 270 kts 167°
2026-05-05 03:44 -34.07792 151.19159 4922 ft 299 kts 166°
2026-05-05 03:44 -34.09901 151.19876 4936 ft 335 kts 166°
2026-05-05 03:44 -34.12262 151.20673 4960 ft 366 kts 166°
2026-05-05 03:45 -34.14749 151.21509 5482 ft 375 kts 166°
2026-05-05 03:45 -34.17192 151.22310 6548 ft 366 kts 169°
2026-05-05 03:45 -34.19680 151.22423 7596 ft 353 kts 193°
2026-05-05 03:45 -34.21845 151.21258 8661 ft 338 kts 220°
2026-05-05 03:46 -34.23306 151.19331 9695 ft 324 kts 234°
2026-05-05 03:46 -34.24553 151.17389 10675 ft 315 kts 234°
2026-05-05 03:46 -34.25744 151.15590 11546 ft 307 kts 233°
2026-05-05 03:46 -34.27018 151.13731 12248 ft 307 kts 233°
2026-05-05 03:47 -34.28297 151.11899 12841 ft 309 kts 233°
2026-05-05 03:47 -34.29590 151.10065 13408 ft 311 kts 233°
2026-05-05 03:47 -34.30874 151.08247 13981 ft 313 kts 233°
2026-05-05 03:47 -34.32120 151.06485 14526 ft 315 kts 233°
2026-05-05 03:48 -34.33402 151.04674 15035 ft 318 kts 233°
2026-05-05 03:48 -34.34675 151.02875 15530 ft 321 kts 233°
2026-05-05 03:48 -34.35971 151.01047 16001 ft 324 kts 232°
2026-05-05 03:48 -34.37355 150.99243 16482 ft 328 kts 229°
2026-05-05 03:49 -34.38837 150.97530 16990 ft 331 kts 225°
2026-05-05 03:49 -34.40364 150.95866 17475 ft 334 kts 225°
2026-05-05 03:49 -34.41925 150.94177 17954 ft 336 kts 225°
2026-05-05 03:49 -34.43493 150.92484 18389 ft 339 kts 225°
2026-05-05 03:50 -34.45073 150.90775 18831 ft 341 kts 225°
2026-05-05 03:50 -34.46681 150.89033 19280 ft 344 kts 225°
2026-05-05 03:50 -34.48274 150.87302 19709 ft 346 kts 225°
2026-05-05 03:50 -34.49884 150.85550 20119 ft 348 kts 225°
2026-05-05 03:51 -34.51521 150.83769 20542 ft 350 kts 225°
2026-05-05 03:51 -34.53158 150.81987 20950 ft 353 kts 225°
2026-05-05 03:51 -34.54770 150.80156 21333 ft 354 kts 229°
2026-05-05 03:51 -34.56279 150.78178 21715 ft 355 kts 233°
2026-05-05 03:52 -34.57663 150.76067 22099 ft 355 kts 236°
2026-05-05 03:52 -34.58983 150.73897 22492 ft 357 kts 237°
2026-05-05 03:52 -34.60296 150.71715 22881 ft 359 kts 237°
2026-05-05 03:52 -34.61604 150.69533 23237 ft 361 kts 237°
2026-05-05 03:53 -34.62934 150.67317 23589 ft 363 kts 237°
2026-05-05 03:53 -34.64282 150.65073 23944 ft 365 kts 237°
2026-05-05 03:53 -34.65620 150.62848 24300 ft 367 kts 237°
2026-05-05 03:53 -34.66976 150.60590 24650 ft 369 kts 237°
2026-05-05 03:54 -34.68341 150.58318 25002 ft 370 kts 237°
2026-05-05 03:54 -34.69720 150.56020 25327 ft 372 kts 238°
2026-05-05 03:54 -34.71080 150.53755 25635 ft 374 kts 238°
2026-05-05 03:54 -34.72471 150.51436 25948 ft 376 kts 238°
2026-05-05 03:55 -34.73849 150.49138 26264 ft 377 kts 238°
2026-05-05 03:55 -34.75256 150.46790 26590 ft 378 kts 238°
2026-05-05 03:55 -34.76645 150.44472 26878 ft 380 kts 238°
2026-05-05 03:55 -34.78040 150.42140 27166 ft 382 kts 238°
2026-05-05 03:56 -34.79452 150.39777 27448 ft 383 kts 238°
2026-05-05 03:56 -34.80863 150.37415 27705 ft 386 kts 238°
2026-05-05 03:56 -34.82270 150.35059 27961 ft 388 kts 238°
2026-05-05 03:56 -34.83682 150.32692 28243 ft 389 kts 239°
2026-05-05 03:57 -34.85093 150.30325 28528 ft 390 kts 239°
2026-05-05 03:57 -34.86547 150.27887 28820 ft 392 kts 239°
2026-05-05 03:57 -34.87973 150.25493 29087 ft 393 kts 239°
2026-05-05 03:57 -34.89398 150.23097 29374 ft 394 kts 239°
2026-05-05 03:58 -34.90810 150.20721 29647 ft 396 kts 239°
2026-05-05 03:58 -34.92204 150.18376 29886 ft 397 kts 239°
2026-05-05 03:58 -34.93630 150.15974 30122 ft 399 kts 239°
2026-05-05 03:58 -34.95052 150.13579 30340 ft 401 kts 239°
2026-05-05 03:59 -34.96488 150.11156 30541 ft 403 kts 239°
2026-05-05 03:59 -34.97922 150.08737 30751 ft 405 kts 239°
2026-05-05 03:59 -34.99367 150.06299 30972 ft 406 kts 239°
2026-05-05 03:59 -35.00830 150.03824 31209 ft 408 kts 239°
2026-05-05 04:00 -35.02279 150.01375 31418 ft 409 kts 239°
2026-05-05 04:00 -35.03724 149.98926 31628 ft 411 kts 239°
2026-05-05 04:00 -35.05206 149.96417 31848 ft 412 kts 239°
2026-05-05 04:00 -35.06709 149.93875 32059 ft 413 kts 239°
2026-05-05 04:01 -35.08220 149.91318 32282 ft 414 kts 239°
2026-05-05 04:01 -35.09715 149.88786 32492 ft 415 kts 239°
2026-05-05 04:01 -35.11234 149.86209 32697 ft 416 kts 239°
2026-05-05 04:01 -35.12743 149.83647 32867 ft 418 kts 239°
2026-05-05 04:02 -35.14260 149.81067 33049 ft 419 kts 239°
2026-05-05 04:02 -35.15759 149.78520 33306 ft 418 kts 239°
2026-05-05 04:02 -35.17261 149.75964 33558 ft 418 kts 239°
2026-05-05 04:02 -35.18773 149.73387 33788 ft 418 kts 240°
2026-05-05 04:03 -35.20263 149.70848 34006 ft 417 kts 239°
2026-05-05 04:03 -35.21774 149.68268 34210 ft 417 kts 239°
2026-05-05 04:03 -35.23284 149.65688 34396 ft 417 kts 239°
2026-05-05 04:03 -35.24801 149.63095 34575 ft 417 kts 240°
2026-05-05 04:04 -35.26306 149.60524 34729 ft 417 kts 240°
2026-05-05 04:04 -35.27799 149.57965 34851 ft 418 kts 240°
2026-05-05 04:04 -35.29303 149.55389 34982 ft 419 kts 240°
2026-05-05 04:04 -35.30805 149.52815 35115 ft 419 kts 240°
2026-05-05 04:05 -35.32309 149.50235 35244 ft 420 kts 240°
2026-05-05 04:05 -35.33809 149.47658 35380 ft 420 kts 240°
2026-05-05 04:05 -35.35317 149.45067 35505 ft 420 kts 240°
2026-05-05 04:05 -35.36825 149.42476 35620 ft 421 kts 240°
2026-05-05 04:06 -35.38345 149.39859 35753 ft 421 kts 240°
2026-05-05 04:06 -35.39834 149.37297 35890 ft 422 kts 240°
2026-05-05 04:06 -35.41351 149.34682 36025 ft 423 kts 240°
2026-05-05 04:06 -35.42868 149.32066 36090 ft 424 kts 240°
2026-05-05 04:07 -35.45886 149.26854 36100 ft 424 kts 240°
2026-05-05 04:07 -35.48926 149.21599 36096 ft 424 kts 240°
2026-05-05 04:08 -35.51903 149.16444 36094 ft 424 kts 240°
2026-05-05 04:08 -35.54891 149.11263 36091 ft 424 kts 240°
2026-05-05 04:09 -35.57877 149.06078 36093 ft 423 kts 240°
2026-05-05 04:09 -35.60897 149.00825 36096 ft 424 kts 240°
2026-05-05 04:10 -35.63907 148.95583 36102 ft 423 kts 240°
2026-05-05 04:10 -35.66924 148.90318 36109 ft 423 kts 240°
2026-05-05 04:11 -35.69963 148.85010 36108 ft 423 kts 240°
2026-05-05 04:11 -35.72922 148.79829 36109 ft 423 kts 240°
2026-05-05 04:12 -35.75869 148.74664 36102 ft 423 kts 240°
2026-05-05 04:12 -35.78811 148.69501 36103 ft 423 kts 240°
2026-05-05 04:13 -35.81731 148.64368 36104 ft 422 kts 240°
2026-05-05 04:13 -35.84664 148.59201 36107 ft 422 kts 240°
2026-05-05 04:14 -35.87568 148.54079 36105 ft 422 kts 240°
2026-05-05 04:14 -35.90494 148.48904 36098 ft 422 kts 240°
2026-05-05 04:15 -35.93467 148.43631 36093 ft 422 kts 240°
2026-05-05 04:15 -35.96432 148.38361 36105 ft 421 kts 240°
2026-05-05 04:16 -35.99401 148.33073 36106 ft 421 kts 240°
2026-05-05 04:16 -36.02338 148.27837 36103 ft 420 kts 240°
2026-05-05 04:17 -36.05291 148.22562 36108 ft 420 kts 240°
2026-05-05 04:17 -36.08240 148.17284 36117 ft 420 kts 240°
2026-05-05 04:18 -36.11122 148.12118 36105 ft 420 kts 240°
2026-05-05 04:18 -36.14014 148.06950 36110 ft 420 kts 240°
2026-05-05 04:19 -36.16956 148.01695 36110 ft 420 kts 240°
2026-05-05 04:19 -36.19901 147.96419 36113 ft 420 kts 240°
2026-05-05 04:20 -36.22841 147.91144 36120 ft 420 kts 240°
2026-05-05 04:20 -36.25756 147.85906 36116 ft 421 kts 240°
2026-05-05 04:21 -36.28674 147.80652 36116 ft 420 kts 240°
2026-05-05 04:21 -36.31606 147.75363 36133 ft 420 kts 240°
2026-05-05 04:22 -36.34519 147.70100 36139 ft 420 kts 239°
2026-05-05 04:22 -36.37462 147.64775 36134 ft 420 kts 240°
2026-05-05 04:23 -36.40389 147.59460 36121 ft 419 kts 239°
2026-05-05 04:23 -36.43312 147.54150 36127 ft 420 kts 239°
2026-05-05 04:24 -36.46259 147.48781 36122 ft 420 kts 239°
2026-05-05 04:25 -36.50605 147.40851 36119 ft 420 kts 239°
2026-05-05 04:25 -36.53489 147.35579 36126 ft 420 kts 239°
2026-05-05 04:26 -36.56464 147.30129 36126 ft 419 kts 240°
2026-05-05 04:26 -36.59402 147.24741 36125 ft 419 kts 240°
2026-05-05 04:27 -36.62309 147.19397 36128 ft 419 kts 239°
2026-05-05 04:27 -36.65235 147.14011 36123 ft 419 kts 239°
2026-05-05 04:28 -36.68144 147.08650 36132 ft 419 kts 240°
2026-05-05 04:28 -36.71053 147.03279 36132 ft 419 kts 239°
2026-05-05 04:29 -36.73934 146.97960 36132 ft 419 kts 239°
2026-05-05 04:29 -36.76834 146.92595 36130 ft 419 kts 239°
2026-05-05 04:30 -36.79721 146.87239 36122 ft 419 kts 239°
2026-05-05 04:30 -36.82580 146.81929 35729 ft 419 kts 239°
2026-05-05 04:30 -36.84001 146.79283 35119 ft 423 kts 238°
2026-05-05 04:31 -36.84625 146.78117 34811 ft 426 kts 239°
2026-05-05 04:31 -36.86274 146.75041 34046 ft 430 kts 238°
2026-05-05 04:31 -36.87934 146.71942 33272 ft 432 kts 237°
2026-05-05 04:31 -36.89591 146.68848 32497 ft 434 kts 237°
2026-05-05 04:32 -36.91264 146.65726 31902 ft 430 kts 237°
2026-05-05 04:32 -36.92860 146.62749 31397 ft 426 kts 236°
2026-05-05 04:32 -36.94316 146.60028 30905 ft 423 kts 236°
2026-05-05 04:32 -36.95758 146.57329 30374 ft 421 kts 236°
2026-05-05 04:33 -36.97246 146.54544 29811 ft 418 kts 236°
2026-05-05 04:33 -36.98850 146.51537 29244 ft 414 kts 236°
2026-05-05 04:33 -37.00440 146.48557 28688 ft 410 kts 236°
2026-05-05 04:33 -37.02007 146.45615 28125 ft 406 kts 235°
2026-05-05 04:34 -37.03562 146.42690 27525 ft 404 kts 235°
2026-05-05 04:34 -37.05112 146.39772 26895 ft 402 kts 235°
2026-05-05 04:34 -37.06637 146.36900 26366 ft 398 kts 235°
2026-05-05 04:34 -37.08143 146.34061 25893 ft 392 kts 236°
2026-05-05 04:35 -37.09642 146.31232 25427 ft 387 kts 235°
2026-05-05 04:35 -37.11115 146.28455 24970 ft 383 kts 235°
2026-05-05 04:35 -37.12551 146.25743 24514 ft 379 kts 235°
2026-05-05 04:35 -37.13845 146.23297 24115 ft 375 kts 235°
2026-05-05 04:36 -37.15111 146.20901 23716 ft 372 kts 235°
2026-05-05 04:36 -37.16372 146.18514 23308 ft 369 kts 235°
2026-05-05 04:36 -37.17609 146.16170 22916 ft 366 kts 235°
2026-05-05 04:36 -37.18847 146.13823 22522 ft 364 kts 235°
2026-05-05 04:37 -37.20084 146.11478 22120 ft 361 kts 235°
2026-05-05 04:37 -37.21316 146.09135 21732 ft 358 kts 235°
2026-05-05 04:37 -37.22514 146.06859 21341 ft 356 kts 235°
2026-05-05 04:37 -37.23737 146.04532 20943 ft 354 kts 235°
2026-05-05 04:38 -37.24918 146.02284 20560 ft 351 kts 235°
2026-05-05 04:38 -37.26102 146.00029 20183 ft 349 kts 235°
2026-05-05 04:38 -37.27279 145.97784 19819 ft 346 kts 235°
2026-05-05 04:38 -37.28435 145.95578 19441 ft 344 kts 235°
2026-05-05 04:39 -37.29590 145.93376 19055 ft 342 kts 235°
2026-05-05 04:39 -37.30730 145.91200 18676 ft 340 kts 235°
2026-05-05 04:39 -37.31869 145.89033 18290 ft 339 kts 235°
2026-05-05 04:39 -37.33000 145.86882 17909 ft 337 kts 235°
2026-05-05 04:40 -37.34130 145.84731 17536 ft 335 kts 235°
2026-05-05 04:40 -37.35249 145.82599 17170 ft 333 kts 235°
2026-05-05 04:40 -37.36354 145.80493 16803 ft 332 kts 235°
2026-05-05 04:40 -37.37465 145.78372 16430 ft 330 kts 235°
2026-05-05 04:41 -37.38574 145.76253 16061 ft 329 kts 236°
2026-05-05 04:41 -37.39671 145.74155 15697 ft 327 kts 236°
2026-05-05 04:41 -37.40773 145.72047 15332 ft 325 kts 236°
2026-05-05 04:41 -37.41873 145.69942 14963 ft 324 kts 236°
2026-05-05 04:42 -37.42964 145.67853 14588 ft 322 kts 236°
2026-05-05 04:42 -37.44027 145.65765 14212 ft 321 kts 240°
2026-05-05 04:42 -37.44778 145.63475 13834 ft 321 kts 253°
2026-05-05 04:42 -37.45086 145.61012 13472 ft 321 kts 265°
2026-05-05 04:43 -37.45091 145.58559 13130 ft 320 kts 268°
2026-05-05 04:43 -37.44985 145.53159 12381 ft 318 kts 269°
2026-05-05 04:43 -37.44754 145.38535 10937 ft 311 kts 268°
2026-05-05 04:43 -37.44625 145.24725 9409 ft 305 kts 269°
2026-05-05 04:44 -37.44597 145.22553 9154 ft 299 kts 269°
2026-05-05 04:44 -37.44564 145.20334 8903 ft 293 kts 269°
2026-05-05 04:44 -37.44531 145.18115 8599 ft 289 kts 269°
2026-05-05 04:44 -37.44500 145.15976 8302 ft 286 kts 269°
2026-05-05 04:45 -37.44470 145.13838 8005 ft 282 kts 270°
2026-05-05 04:45 -37.44439 145.11760 7722 ft 278 kts 270°
2026-05-05 04:45 -37.44408 145.09714 7439 ft 275 kts 270°
2026-05-05 04:45 -37.44377 145.07665 7159 ft 271 kts 270°
2026-05-05 04:46 -37.44347 145.05650 6882 ft 268 kts 270°
2026-05-05 04:46 -37.44316 145.03690 6627 ft 264 kts 270°
2026-05-05 04:46 -37.44286 145.01735 6395 ft 258 kts 270°
2026-05-05 04:46 -37.44257 144.99849 6160 ft 254 kts 270°
2026-05-05 04:47 -37.44230 144.98141 5925 ft 251 kts 270°
2026-05-05 04:47 -37.44202 144.96286 5673 ft 248 kts 270°
2026-05-05 04:47 -37.44231 144.94458 5436 ft 244 kts 265°
2026-05-05 04:47 -37.44405 144.92660 5193 ft 241 kts 260°
2026-05-05 04:48 -37.44649 144.90892 4951 ft 237 kts 259°
2026-05-05 04:48 -37.44894 144.89177 4695 ft 235 kts 259°
2026-05-05 04:48 -37.45141 144.87462 4452 ft 232 kts 259°
2026-05-05 04:48 -37.45386 144.85753 4230 ft 229 kts 259°
2026-05-05 04:49 -37.45625 144.84076 3996 ft 226 kts 259°
2026-05-05 04:49 -37.45873 144.82414 3725 ft 225 kts 254°
2026-05-05 04:49 -37.46503 144.80931 3385 ft 225 kts 221°
2026-05-05 04:49 -37.47680 144.80188 3106 ft 224 kts 189°
2026-05-05 04:50 -37.49003 144.80266 3029 ft 226 kts 171°
2026-05-05 04:50 -37.50277 144.80582 3003 ft 227 kts 170°
2026-05-05 04:50 -37.51582 144.80896 2995 ft 228 kts 171°
2026-05-05 04:50 -37.52931 144.81180 2865 ft 228 kts 173°
2026-05-05 04:51 -37.54266 144.81435 2606 ft 227 kts 173°
2026-05-05 04:51 -37.55589 144.81679 2374 ft 224 kts 173°
2026-05-05 04:51 -37.56899 144.81921 2181 ft 211 kts 173°
2026-05-05 04:51 -37.58080 144.82141 1914 ft 203 kts 173°
2026-05-05 04:52 -37.59244 144.82359 1655 ft 192 kts 174°
2026-05-05 04:52 -37.60321 144.82562 1420 ft 176 kts 174°
2026-05-05 04:52 -37.61332 144.82750 1259 ft 165 kts 174°
2026-05-05 04:52 -37.62255 144.82924 1070 ft 152 kts 174°
2026-05-05 04:53 -37.63108 144.83083 890 ft 141 kts 174°
2026-05-05 04:53 -37.63911 144.83232 748 ft 139 kts 175°
2026-05-05 04:53 -37.64732 144.83385 596 ft 138 kts 175°
2026-05-05 04:53 -37.65532 144.83536 458 ft 137 kts 174°
2026-05-05 04:54 -37.66285 144.83670 415 ft 108 kts 174°
2026-05-05 04:54 -37.66739 144.83752 397 ft 41 kts 169°
2026-05-05 04:54 -37.66942 144.83815 388 ft 35 kts 163°
2026-05-05 04:54 -37.67110 144.83913 382 ft 24 kts 136°
2026-05-05 04:55 -37.67180 144.84029 380 ft 17 kts 110°